[[{"header":{"parameterUnit":"m.s-1","parameterCategory":2,"la1":30.2991,"la2":30.254,"lo1":-89.0895,"lo2":-89.0444,"dy":0.0017,"dx":0.0017,"nx":28,"ny":28,"refTime":"2024-08-14T03:00:00:Z","depth":"0","parameterNumber":2,"parameterNumberName":"U-component_of_CURRENTS"},"data":[0,0,0,0,0,0,0,0,0,0,0,0,0,0,0,0,0,0,0,0,0,0,0,0,0,0,0,0,0,0,0,0,0,0,0,0,0,0,0,0,0,0,0,0,0,0,0,0,0,0,0,0,0,0,0,0,0,0,-0.1334,-0.1335,0,-0.1431,-0.1431,-0.1432,-0.1444,-0.1444,-0.1443,-0.1443,-0.1389,-0.1388,-0.1387,0,0,0,0,0,0,0,0,0,0,0,0,0,-0.1217,-0.1219,-0.1333,-0.1335,-0.1337,-0.1431,-0.1431,-0.1432,-0.1444,-0.1444,-0.1443,-0.1443,-0.1389,-0.1388,-0.1387,0,0,0,0,0,0,0,0,0,0,0,0,0,-0.1282,-0.1219,-0.1333,-0.1358,-0.1361,-0.143,-0.1431,-0.1433,-0.1445,-0.1444,-0.1443,-0.1442,-0.139,-0.1388,-0.1387,-0.1392,0,0,-0.1382,-0.1382,0,0,0,0,0,0,0,0,-0.1278,-0.1285,-0.1353,-0.1356,-0.136,-0.1429,-0.1371,-0.1413,-0.1445,-0.1408,-0.1443,-0.1442,-0.1392,-0.1391,-0.1405,-0.1389,-0.1387,-0.1382,-0.1381,-0.1381,-0.138,0,0,0,0,0,0,0,-0.1273,-0.1281,-0.1367,-0.1355,-0.1359,-0.1385,-0.1392,-0.138,-0.1396,-0.1411,-0.1413,-0.1432,-0.1392,-0.1407,-0.1404,-0.1386,-0.1382,-0.1381,-0.138,-0.1379,-0.1409,-0.141,0,0,0,0,0,0,-0.1269,-0.1277,-0.1364,-0.137,-0.1322,-0.1388,-0.1395,-0.1404,-0.14,-0.1401,-0.1433,-0.1433,-0.141,-0.1406,-0.1402,-0.1401,-0.1381,-0.1379,-0.1378,-0.1407,-0.1409,-0.1411,0,0,0,0,0,0,-0.1266,-0.1276,-0.136,-0.133,-0.1344,-0.139,-0.14,-0.1406,-0.1419,-0.1419,-0.1416,-0.1439,-0.1409,-0.1404,-0.1389,-0.1398,-0.1379,-0.1377,-0.1405,-0.1408,-0.141,-0.1401,0,0,0,0,0,0,-0.1262,-0.1274,-0.1265,-0.133,-0.1345,-0.1375,-0.1401,-0.1409,-0.1434,-0.1434,-0.1423,-0.1418,-0.1408,-0.1391,-0.1387,-0.1396,-0.1376,-0.1403,-0.1406,-0.1409,-0.14,-0.1403,-0.1407,0,0,0,0,0,-0.1258,-0.1254,-0.1263,-0.1274,-0.1335,-0.1375,-0.1383,-0.1412,-0.1435,-0.1424,-0.1433,-0.1418,-0.141,-0.139,-0.1386,-0.1394,-0.1402,-0.1405,-0.1409,-0.1398,-0.1403,-0.1406,0,0,0,0,0,0,-0.1202,-0.1258,-0.1269,-0.1282,-0.1313,-0.1378,-0.1371,-0.1413,-0.1419,-0.1413,-0.1421,-0.1416,-0.1411,-0.1412,-0.1391,-0.142,-0.1411,-0.1414,-0.1404,-0.1408,-0.1412,-0.1375,-0.1375,0,0,0,0,0,-0.1187,-0.1197,-0.125,-0.1259,-0.1262,-0.1319,-0.1338,-0.1366,-0.1393,-0.1396,-0.1394,-0.1406,-0.1428,-0.1421,-0.1422,-0.1423,-0.1384,-0.1436,-0.144,-0.1442,-0.1414,-0.1404,-0.1402,-0.1423,-0.1423,-0.1423,0,0,-0.1165,-0.1204,-0.1204,-0.1248,-0.1266,-0.127,-0.1325,-0.1346,-0.1363,-0.1385,-0.1376,-0.1403,-0.1432,-0.1438,-0.1438,-0.1433,-0.141,-0.1447,-0.1449,-0.1418,-0.1407,-0.1404,-0.1402,-0.1426,-0.1425,-0.1425,0,0,-0.1134,-0.1154,-0.1141,-0.1161,-0.1199,-0.1234,-0.124,-0.1289,-0.1308,-0.1322,-0.1361,-0.1388,-0.1396,-0.1427,-0.1449,-0.1473,-0.1428,-0.1494,-0.1472,-0.1464,-0.146,-0.1457,-0.1363,-0.1352,-0.1496,-0.1496,-0.1496,0,-0.1092,-0.1102,-0.1142,-0.1138,-0.1146,-0.1213,-0.1195,-0.1236,-0.1281,-0.1301,-0.1303,-0.1373,-0.1391,-0.1441,-0.1459,-0.1475,-0.1435,-0.1449,-0.1463,-0.1459,-0.1456,-0.1361,-0.1348,-0.1496,-0.1496,-0.1496,-0.1496,0,-0.1056,-0.1054,-0.1046,-0.1057,-0.1069,-0.1069,-0.1123,-0.1142,-0.1183,-0.1235,-0.1278,-0.132,-0.1362,-0.14,-0.1431,-0.1451,-0.1415,-0.1464,-0.1439,-0.1452,-0.1352,-0.1339,-0.1496,-0.1496,-0.1496,-0.1496,0,0,-0.0974,-0.1006,-0.0999,-0.0985,-0.1024,-0.1029,-0.1053,-0.1096,-0.1106,-0.1173,-0.1177,-0.1278,-0.132,-0.1349,-0.1411,-0.1417,-0.136,-0.1428,-0.1427,-0.1307,-0.1269,-0.1007,-0.0967,-0.1415,-0.1414,-0.1413,-0.1191,0,-0.0917,-0.0894,-0.093,-0.0894,-0.0874,-0.0933,-0.0944,-0.1002,-0.1045,-0.1058,-0.1166,-0.1182,-0.1303,-0.1304,-0.1349,-0.1366,-0.1332,-0.141,-0.1296,-0.129,-0.1036,-0.0947,-0.0828,-0.06,-0.1177,-0.1175,-0.1174,0,-0.0856,-0.0857,-0.0809,-0.0811,-0.08,-0.0796,-0.0809,-0.0829,-0.0902,-0.0929,-0.1007,-0.1068,-0.1132,-0.1192,-0.1233,-0.128,-0.1256,-0.1258,-0.125,-0.0994,-0.1004,-0.0693,-0.0554,-0.0624,-0.1153,-0.1154,-0.1156,0,-0.0774,-0.0763,-0.0723,-0.0722,-0.0738,-0.0729,-0.0739,-0.0796,-0.0798,-0.0831,-0.0805,-0.0931,-0.0921,-0.0994,-0.1024,-0.1125,-0.0976,-0.1121,-0.0849,-0.0828,-0.0691,-0.0658,-0.0579,-0.107,-0.107,-0.1071,-0.1072,0,-0.0697,-0.0662,-0.0682,-0.0657,-0.0615,-0.0647,-0.0607,-0.0638,-0.0649,-0.0618,-0.0729,-0.069,-0.0867,-0.0833,-0.0916,-0.0784,-0.0893,-0.0773,-0.0741,-0.0678,-0.0648,-0.0675,-0.085,-0.1062,-0.1064,-0.1066,-0.1067,0,-0.0607,-0.0618,-0.0574,-0.0575,-0.0574,-0.054,-0.0527,-0.0499,-0.0507,-0.0447,-0.0439,-0.0479,-0.0423,-0.0505,-0.0524,-0.0553,-0.0492,-0.0414,-0.0264,-0.0215,-0.0062,-0.0243,-0.0141,-0.012,-0.011,-0.0102,-0.0095,0,-0.0557,-0.0529,-0.0508,-0.0478,-0.0472,-0.0442,-0.042,-0.0437,-0.0398,-0.0315,-0.0261,-0.0161,-0.0102,0.003,0.0039,0.0083,-0.0137,0.0256,0.0074,0.0054,-0.0131,-0.0303,-0.0311,0.0254,0.0263,0.027,0.0276,0,-0.0466,-0.0457,-0.0417,-0.0374,-0.0336,-0.0297,-0.026,-0.0217,-0.0198,-0.0125,0.001,0.0087,0.0286,0.041,0.0568,0.0559,0.0211,0.0418,0.0304,0.0136,0.0038,0.0041,0.0037,0.0342,0.0336,0.0331,0.0327,0.0325,-0.039,-0.034,-0.0295,-0.0245,-0.0211,-0.015,-0.0093,-0.0044,0.0044,0.0168,0.0223,0.0385,0.0609,0.0834,0.085,0.0983,0.0725,0.0892,0.0676,0.0511,0.053,0.0769,0.1161,0.1159,0.1157,0.1156,0.1155,0,-0.0292,-0.0239,-0.0177,-0.0109,-0.0057,-0.0068,0.0019,0.0091,0.0213,0.0324,0.0448,0.0735,0.0973,0.1087,0.1313,0.1232,0.1049,0.1103,0.0777,0.0755,0.0925,0.0944,0.1421,0.1421,0.1421,0.1421,0.1421,0.1421,-0.0227,-0.0134,-0.0099,0.0013,0.005,0.014,0.0198,0.0306,0.0397,0.0603,0.0745,0.084,0.1043,0.1196,0.1247,0.1189,0.0885,0.0862,0.0709,0.0685,0.0643,0.0603,0.0588,0.0982,0.0981,0.0634,0.0629,0.0626]},{"header":{"parameterUnit":"m.s-1","parameterCategory":2,"la1":30.2991,"la2":30.254,"lo1":-89.0895,"lo2":-89.0444,"dy":0.0017,"dx":0.0017,"nx":28,"ny":28,"refTime":"2024-08-14T03:00:00:Z","depth":"0","parameterNumber":3,"parameterNumberName":"V-component_of_CURRENTS"},"data":[0,0,0,0,0,0,0,0,0,0,0,0,0,0,0,0,0,0,0,0,0,0,0,0,0,0,0,0,0,0,0,0,0,0,0,0,0,0,0,0,0,0,0,0,0,0,0,0,0,0,0,0,0,0,0,0,0,0,-0.0626,-0.0626,0,-0.0588,-0.0588,-0.0587,-0.0546,-0.0546,-0.0546,-0.0545,-0.0476,-0.0475,-0.0473,0,0,0,0,0,0,0,0,0,0,0,0,0,-0.0549,-0.0551,-0.0626,-0.0626,-0.0626,-0.0588,-0.0588,-0.0587,-0.0547,-0.0546,-0.0546,-0.0545,-0.0477,-0.0475,-0.0473,0,0,0,0,0,0,0,0,0,0,0,0,0,-0.0552,-0.0552,-0.0626,-0.0603,-0.06,-0.0588,-0.0587,-0.0587,-0.0547,-0.0546,-0.0545,-0.0545,-0.0477,-0.0475,-0.0473,-0.047,0,0,-0.0466,-0.0465,0,0,0,0,0,0,0,0,-0.0552,-0.0555,-0.0607,-0.0604,-0.0602,-0.0573,-0.0535,-0.0547,-0.0547,-0.0565,-0.0545,-0.0545,-0.0508,-0.0503,-0.0494,-0.0467,-0.0464,-0.0466,-0.0464,-0.0464,-0.0463,0,0,0,0,0,0,0,-0.0552,-0.0556,-0.0609,-0.0606,-0.0604,-0.0555,-0.0555,-0.0536,-0.0538,-0.0563,-0.0561,-0.056,-0.0506,-0.0497,-0.0492,-0.0463,-0.0466,-0.0464,-0.0463,-0.0462,-0.0363,-0.0362,0,0,0,0,0,0,-0.0569,-0.0557,-0.061,-0.0608,-0.0578,-0.0557,-0.0558,-0.0581,-0.0538,-0.0532,-0.0561,-0.0558,-0.0501,-0.0495,-0.049,-0.0452,-0.0464,-0.0461,-0.046,-0.0364,-0.0363,-0.0361,0,0,0,0,0,0,-0.0568,-0.0575,-0.0612,-0.0581,-0.0583,-0.056,-0.0586,-0.0581,-0.0569,-0.0537,-0.053,-0.0554,-0.05,-0.0493,-0.0465,-0.045,-0.046,-0.0458,-0.0366,-0.0364,-0.0362,-0.0397,0,0,0,0,0,0,-0.0566,-0.0575,-0.0591,-0.0584,-0.0585,-0.0617,-0.0587,-0.0581,-0.0571,-0.0567,-0.053,-0.0523,-0.0499,-0.0469,-0.0463,-0.0447,-0.0457,-0.0367,-0.0365,-0.0363,-0.0398,-0.0397,-0.0396,0,0,0,0,0,-0.0564,-0.0594,-0.0592,-0.0598,-0.0611,-0.0618,-0.0615,-0.0593,-0.0571,-0.0577,-0.0538,-0.0524,-0.0449,-0.0467,-0.046,-0.0443,-0.0368,-0.0366,-0.0363,-0.0398,-0.0397,-0.0396,0,0,0,0,0,0,-0.0568,-0.0593,-0.0591,-0.0627,-0.0627,-0.0612,-0.062,-0.0596,-0.0569,-0.0567,-0.052,-0.0511,-0.0481,-0.0454,-0.0475,-0.0403,-0.0401,-0.0397,-0.043,-0.0428,-0.0428,-0.0428,-0.0455,0,0,0,0,0,-0.0579,-0.0606,-0.0616,-0.0642,-0.0654,-0.0635,-0.0631,-0.0621,-0.0599,-0.0587,-0.0552,-0.0507,-0.0464,-0.0442,-0.0413,-0.0382,-0.0314,-0.0359,-0.0359,-0.0358,-0.0351,-0.0172,-0.0154,-0.0352,-0.0352,-0.0352,0,0,-0.059,-0.0602,-0.0619,-0.0643,-0.0647,-0.0668,-0.0632,-0.0645,-0.065,-0.0585,-0.0575,-0.0516,-0.0457,-0.042,-0.0401,-0.0395,-0.0283,-0.0355,-0.0355,-0.0348,-0.0167,-0.0147,-0.013,-0.035,-0.035,-0.0351,0,0,-0.0613,-0.0642,-0.0668,-0.068,-0.0692,-0.0692,-0.0698,-0.069,-0.068,-0.0668,-0.0601,-0.051,-0.0493,-0.0402,-0.0364,-0.0333,-0.029,-0.0345,-0.0336,-0.0163,-0.0144,-0.0127,-0.009,-0.0069,-0.0336,-0.0336,-0.0336,0,-0.0619,-0.0655,-0.0673,-0.0697,-0.0708,-0.0708,-0.0731,-0.0735,-0.0707,-0.0684,-0.068,-0.0519,-0.0469,-0.0348,-0.0344,-0.0328,-0.0279,-0.0351,-0.016,-0.0141,-0.0123,-0.0087,-0.0063,-0.0338,-0.0337,-0.0337,-0.0337,0,-0.0665,-0.0684,-0.0706,-0.0743,-0.076,-0.0784,-0.0802,-0.0805,-0.0792,-0.0762,-0.066,-0.0545,-0.0436,-0.0398,-0.0378,-0.0217,-0.0248,-0.0186,-0.0165,-0.0105,-0.0073,-0.0047,-0.034,-0.0339,-0.0339,-0.0338,0,0,-0.0695,-0.0729,-0.0733,-0.0739,-0.0784,-0.0798,-0.0835,-0.0836,-0.0824,-0.0761,-0.0687,-0.0556,-0.0464,-0.0408,-0.031,-0.0156,-0.0011,-0.0139,-0.0129,-0.011,0.0269,0.0202,0.0223,0.0083,0.0089,0.0094,0.0211,0,-0.0715,-0.0746,-0.0768,-0.0798,-0.0819,-0.0841,-0.0862,-0.0863,-0.0852,-0.0795,-0.0636,-0.0545,-0.0481,-0.0401,-0.0236,-0.0054,0.0065,-0.0055,0.0214,0.022,0.0153,0.0257,0.0244,0.0348,0.0237,0.0241,0.0244,0,-0.075,-0.0758,-0.0787,-0.0799,-0.0814,-0.0837,-0.0856,-0.0873,-0.0824,-0.0797,-0.0663,-0.058,-0.0358,-0.0304,0.0049,-0.0041,0.0091,0.0232,0.0242,0.0221,0.0206,0.0288,0.0399,0.0496,0.0284,0.028,0.0278,0,-0.074,-0.0768,-0.0781,-0.0795,-0.0824,-0.0836,-0.0856,-0.0856,-0.0846,-0.078,-0.0733,-0.0513,-0.0375,-0.0121,0.0092,0.0087,0.0452,0.0497,0.0554,0.0545,0.0611,0.0599,0.0856,0.0748,0.0748,0.0747,0.0747,0,-0.0746,-0.0749,-0.0772,-0.0781,-0.0789,-0.0823,-0.0824,-0.0834,-0.0795,-0.0744,-0.0701,-0.059,-0.0315,-0.0118,0.0096,0.0378,0.0461,0.0571,0.0613,0.0584,0.057,0.0716,0.0717,0.0752,0.0751,0.075,0.0749,0,-0.0715,-0.0738,-0.0744,-0.0772,-0.0782,-0.0786,-0.0803,-0.0794,-0.0786,-0.0708,-0.068,-0.0601,-0.0392,-0.0169,0.0203,0.037,0.0703,0.0717,0.0575,0.0599,0.0744,0.0739,0.0959,0.1041,0.0832,0.0831,0.0831,0,-0.0692,-0.0695,-0.0726,-0.0733,-0.0742,-0.0754,-0.0762,-0.0774,-0.0752,-0.0691,-0.0627,-0.0517,-0.0419,-0.0013,0.0254,0.0558,0.0672,0.0744,0.0778,0.0768,0.0798,0.0771,0.0823,0.0817,0.0816,0.0816,0.0816,0,-0.0632,-0.0651,-0.0658,-0.0684,-0.0695,-0.0694,-0.0696,-0.0675,-0.0665,-0.0608,-0.0525,-0.0468,-0.0255,-0.0015,0.0261,0.0497,0.0771,0.0744,0.086,0.0907,0.0782,0.0872,0.0611,0.0813,0.0814,0.0814,0.0814,0.0814,-0.0575,-0.057,-0.0597,-0.0621,-0.0631,-0.0619,-0.0599,-0.0578,-0.0526,-0.0414,-0.0407,-0.0279,-0.0121,0.0219,0.0428,0.076,0.0735,0.0922,0.0936,0.0924,0.0968,0.0608,0.0783,0.0783,0.0783,0.0783,0.0783,0,-0.0497,-0.0512,-0.0534,-0.0551,-0.054,-0.0573,-0.0542,-0.0497,-0.0409,-0.0301,-0.0209,0.0024,0.0212,0.0431,0.0769,0.0963,0.1053,0.1071,0.1096,0.1166,0.099,0.0956,0.1027,0.1026,0.1026,0.1026,0.1026,0.1026,-0.045,-0.0452,-0.0486,-0.0464,-0.0472,-0.043,-0.0404,-0.0328,-0.0242,-0.0024,0.0148,0.0264,0.0527,0.0746,0.1083,0.1169,0.1333,0.1248,0.1368,0.1278,0.1267,0.1257,0.1234,0.1362,0.1362,0.1563,0.1565,0.1566]}],[{"header":{"parameterUnit":"m.s-1","parameterCategory":2,"la1":30.2991,"la2":30.254,"lo1":-89.0895,"lo2":-89.0444,"dy":0.0017,"dx":0.0017,"nx":28,"ny":28,"refTime":"2024-08-14T03:00:00:Z","depth":"2","parameterNumber":2,"parameterNumberName":"U-component_of_CURRENTS"},"data":[0,0,0,0,0,0,0,0,0,0,0,0,0,0,0,0,0,0,0,0,0,0,0,0,0,0,0,0,0,0,0,0,0,0,0,0,0,0,0,0,0,0,0,0,0,0,0,0,0,0,0,0,0,0,0,0,0,0,-0.2568,-0.2568,0,-0.2554,-0.2553,-0.2553,-0.2745,-0.275,-0.2756,-0.2761,-0.2952,-0.2952,-0.2952,0,0,0,0,0,0,0,0,0,0,0,0,0,-0.2501,-0.2503,-0.2568,-0.2568,-0.2568,-0.2554,-0.2553,-0.2553,-0.2744,-0.2751,-0.2757,-0.2763,-0.2952,-0.2952,-0.2952,0,0,0,0,0,0,0,0,0,0,0,0,0,-0.2512,-0.2503,-0.2568,-0.2663,-0.2672,-0.2554,-0.2553,-0.2553,-0.2743,-0.2751,-0.2759,-0.2766,-0.2952,-0.2952,-0.2952,-0.2791,0,0,-0.2952,-0.2952,0,0,0,0,0,0,0,0,-0.2511,-0.2514,-0.2649,-0.2656,-0.2666,-0.2661,-0.26,-0.2643,-0.2741,-0.2714,-0.2761,-0.277,-0.2868,-0.2876,-0.285,-0.28,-0.2808,-0.2952,-0.2952,-0.2952,-0.2952,0,0,0,0,0,0,0,-0.2511,-0.2514,-0.2561,-0.2648,-0.2658,-0.2617,-0.263,-0.2606,-0.2749,-0.2717,-0.2731,-0.2729,-0.2876,-0.2849,-0.2856,-0.2811,-0.2952,-0.2952,-0.2952,-0.2952,-0.2904,-0.2903,0,0,0,0,0,0,-0.252,-0.2514,-0.2562,-0.2561,-0.2609,-0.2613,-0.2627,-0.2653,-0.2745,-0.2765,-0.2722,-0.2738,-0.2845,-0.2856,-0.2864,-0.2931,-0.2952,-0.2952,-0.2952,-0.2906,-0.2904,-0.2903,0,0,0,0,0,0,-0.2519,-0.2525,-0.2562,-0.2537,-0.254,-0.2608,-0.2634,-0.2648,-0.2695,-0.2747,-0.2774,-0.2764,-0.2852,-0.2864,-0.296,-0.2932,-0.2952,-0.2952,-0.2907,-0.2905,-0.2903,-0.2903,0,0,0,0,0,0,-0.2518,-0.2526,-0.2603,-0.2538,-0.2541,-0.2576,-0.2626,-0.2642,-0.2678,-0.2701,-0.2788,-0.2811,-0.2859,-0.296,-0.296,-0.2932,-0.2952,-0.2909,-0.2906,-0.2904,-0.2905,-0.2902,-0.2899,0,0,0,0,0,-0.2516,-0.2588,-0.2607,-0.2615,-0.2628,-0.2577,-0.2576,-0.2646,-0.2673,-0.2712,-0.2794,-0.2812,-0.2942,-0.296,-0.296,-0.2932,-0.291,-0.2907,-0.2904,-0.2906,-0.2902,-0.2899,0,0,0,0,0,0,-0.2608,-0.261,-0.2633,-0.2709,-0.268,-0.2614,-0.2649,-0.2648,-0.2721,-0.2761,-0.2815,-0.2843,-0.2905,-0.2907,-0.2925,-0.2906,-0.2915,-0.2912,-0.2917,-0.2913,-0.291,-0.2885,-0.2953,0,0,0,0,0,-0.265,-0.2706,-0.2668,-0.2724,-0.2707,-0.2665,-0.2667,-0.2685,-0.2704,-0.2745,-0.2799,-0.2841,-0.286,-0.2896,-0.292,-0.2907,-0.2851,-0.2878,-0.2875,-0.2873,-0.285,-0.2715,-0.2697,-0.2893,-0.2893,-0.2893,0,0,-0.269,-0.2702,-0.2736,-0.2747,-0.2714,-0.2678,-0.269,-0.2682,-0.2689,-0.2745,-0.2816,-0.2841,-0.2858,-0.2883,-0.2901,-0.2904,-0.2797,-0.2869,-0.2867,-0.2845,-0.271,-0.269,-0.2673,-0.2891,-0.2891,-0.2891,0,0,-0.2695,-0.2797,-0.2795,-0.2785,-0.2755,-0.2732,-0.2733,-0.2687,-0.2737,-0.2768,-0.2804,-0.283,-0.2868,-0.2869,-0.2868,-0.2839,-0.2789,-0.2832,-0.2795,-0.2665,-0.2647,-0.2631,-0.2578,-0.2557,-0.2826,-0.2826,-0.2826,0,-0.2726,-0.2754,-0.2785,-0.2752,-0.275,-0.275,-0.2705,-0.2725,-0.2738,-0.2756,-0.2825,-0.2813,-0.2849,-0.281,-0.2822,-0.283,-0.2768,-0.2819,-0.2659,-0.2641,-0.2624,-0.2574,-0.255,-0.2825,-0.2825,-0.2825,-0.2825,0,-0.2672,-0.2735,-0.2722,-0.2703,-0.2703,-0.2684,-0.268,-0.2711,-0.2755,-0.2764,-0.2784,-0.2811,-0.2798,-0.2792,-0.2814,-0.2691,-0.2694,-0.2675,-0.2669,-0.2604,-0.2556,-0.2532,-0.2825,-0.2825,-0.2825,-0.2825,0,0,-0.2622,-0.2671,-0.2673,-0.2682,-0.269,-0.2659,-0.2683,-0.2681,-0.2674,-0.2739,-0.2719,-0.274,-0.2737,-0.2729,-0.2716,-0.2613,-0.2471,-0.2592,-0.2585,-0.2542,-0.2219,-0.2144,-0.2111,-0.2409,-0.2403,-0.2399,-0.225,0,-0.2557,-0.2541,-0.2563,-0.2556,-0.2562,-0.2587,-0.2588,-0.2609,-0.2655,-0.2664,-0.2687,-0.269,-0.2717,-0.2696,-0.2596,-0.2507,-0.2397,-0.2516,-0.2285,-0.228,-0.222,-0.2075,-0.2008,-0.1859,-0.2226,-0.2222,-0.2219,0,-0.252,-0.2515,-0.2507,-0.2527,-0.2508,-0.2501,-0.2503,-0.2493,-0.2526,-0.2558,-0.2564,-0.2599,-0.2529,-0.2535,-0.2332,-0.2403,-0.2296,-0.2222,-0.2214,-0.2115,-0.2154,-0.1972,-0.18,-0.2177,-0.218,-0.2183,-0.2186,0,-0.2539,-0.251,-0.2523,-0.2531,-0.2512,-0.2502,-0.2478,-0.2488,-0.2479,-0.25,-0.2509,-0.2453,-0.2423,-0.2279,-0.2176,-0.2234,-0.1917,-0.1984,-0.1819,-0.1818,-0.1697,-0.1692,-0.1766,-0.1767,-0.1767,-0.1767,-0.1768,0,-0.256,-0.2569,-0.2544,-0.2555,-0.2514,-0.2495,-0.2453,-0.244,-0.2412,-0.2372,-0.245,-0.2391,-0.2338,-0.2203,-0.2105,-0.1869,-0.1853,-0.1762,-0.173,-0.1703,-0.17,-0.1926,-0.1946,-0.1762,-0.1763,-0.1764,-0.1765,0,-0.2639,-0.2647,-0.2632,-0.257,-0.2561,-0.253,-0.2458,-0.2406,-0.2398,-0.2342,-0.2356,-0.2327,-0.2151,-0.2067,-0.182,-0.1763,-0.1562,-0.1468,-0.1484,-0.1453,-0.1595,-0.1618,-0.1315,-0.131,-0.1306,-0.1303,-0.13,0,-0.2691,-0.2704,-0.2638,-0.2613,-0.2596,-0.2547,-0.2498,-0.2441,-0.2385,-0.2272,-0.2233,-0.2107,-0.1962,-0.1643,-0.1501,-0.1298,-0.1361,-0.1137,-0.1222,-0.1527,-0.1528,-0.1557,-0.1585,-0.1102,-0.1098,-0.1094,-0.1091,0,-0.271,-0.2692,-0.2636,-0.2595,-0.256,-0.2487,-0.242,-0.2376,-0.2257,-0.219,-0.1994,-0.1865,-0.1617,-0.1366,-0.1154,-0.1046,-0.1187,-0.1061,-0.127,-0.1231,-0.1313,-0.132,-0.1355,-0.106,-0.1063,-0.1066,-0.1067,-0.1069,-0.2673,-0.2635,-0.2562,-0.2509,-0.246,-0.2372,-0.2283,-0.2185,-0.2039,-0.1813,-0.1724,-0.1437,-0.1376,-0.0992,-0.0845,-0.0781,-0.0911,-0.0902,-0.0917,-0.0936,-0.094,-0.101,-0.0707,-0.0708,-0.0709,-0.071,-0.071,0,-0.2572,-0.2531,-0.2472,-0.2372,-0.227,-0.229,-0.2159,-0.2013,-0.1788,-0.1558,-0.1308,-0.0994,-0.0796,-0.0722,-0.0583,-0.0551,-0.0595,-0.0519,-0.0609,-0.0641,-0.067,-0.0666,-0.0356,-0.0354,-0.0353,-0.0351,0,0,-0.2511,-0.2417,-0.2376,-0.2185,-0.2124,-0.1951,-0.1855,-0.1643,-0.1435,-0.107,-0.084,-0.0703,-0.0698,-0.051,-0.0488,-0.0392,-0.0503,-0.0356,-0.0654,-0.0794,-0.0819,-0.0913,-0.0945,0,0,0,0,0]},{"header":{"parameterUnit":"m.s-1","parameterCategory":2,"la1":30.2991,"la2":30.254,"lo1":-89.0895,"lo2":-89.0444,"dy":0.0017,"dx":0.0017,"nx":28,"ny":28,"refTime":"2024-08-14T03:00:00:Z","depth":"2","parameterNumber":3,"parameterNumberName":"V-component_of_CURRENTS"},"data":[0,0,0,0,0,0,0,0,0,0,0,0,0,0,0,0,0,0,0,0,0,0,0,0,0,0,0,0,0,0,0,0,0,0,0,0,0,0,0,0,0,0,0,0,0,0,0,0,0,0,0,0,0,0,0,0,0,0,-0.0197,-0.0197,0,-0.0136,-0.0135,-0.0134,0.0094,0.0099,0.0105,0.011,0.042,0.0424,0.0427,0,0,0,0,0,0,0,0,0,0,0,0,0,-0.027,-0.0269,-0.0198,-0.0197,-0.0196,-0.0136,-0.0135,-0.0134,0.0093,0.0099,0.0106,0.0112,0.0419,0.0423,0.0427,0,0,0,0,0,0,0,0,0,0,0,0,0,-0.0228,-0.0269,-0.0198,-0.0074,-0.0062,-0.0136,-0.0135,-0.0134,0.0092,0.01,0.0108,0.0115,0.0418,0.0423,0.0428,0.0299,0,0,0.0443,0.0445,0,0,0,0,0,0,0,0,-0.023,-0.0225,-0.0093,-0.0083,-0.007,-0.0019,-0.0046,0.0024,0.009,0.0031,0.011,0.0119,0.0291,0.0307,0.0296,0.0313,0.0326,0.0443,0.0446,0.0449,0.045,0,0,0,0,0,0,0,-0.0233,-0.0228,-0.0174,-0.0093,-0.0079,-0.0074,-0.0057,-0.0034,0.0119,0.0037,0.0054,0.0061,0.0301,0.029,0.0305,0.0331,0.0443,0.0448,0.0451,0.0453,0.0729,0.0733,0,0,0,0,0,0,-0.0239,-0.0231,-0.0176,-0.0172,-0.013,-0.0078,-0.006,-0.0045,0.0114,0.0145,0.0054,0.0071,0.0277,0.0299,0.0318,0.0492,0.0449,0.0453,0.0456,0.0725,0.073,0.0735,0,0,0,0,0,0,-0.0241,-0.0235,-0.0179,-0.0199,-0.0191,-0.0084,-0.0069,-0.0048,0.0004,0.0124,0.0162,0.0092,0.0285,0.0311,0.0445,0.0495,0.0455,0.046,0.072,0.0727,0.0733,0.0638,0,0,0,0,0,0,-0.0244,-0.0236,-0.0212,-0.0199,-0.019,-0.0171,-0.0076,-0.0052,-0.0007,0.0018,0.0166,0.0201,0.0293,0.0437,0.0449,0.0501,0.0464,0.0714,0.0723,0.0731,0.0635,0.064,0.0645,0,0,0,0,0,-0.0247,-0.0234,-0.0211,-0.0203,-0.0164,-0.0172,-0.0166,-0.0066,-0.0013,0.0009,0.0148,0.0199,0.0502,0.0441,0.0456,0.0511,0.071,0.072,0.073,0.0633,0.0639,0.0644,0,0,0,0,0,0,-0.0247,-0.0211,-0.0183,-0.0157,-0.0147,-0.013,-0.0107,-0.0074,0.0031,0.0077,0.0204,0.0246,0.0408,0.0463,0.0394,0.0632,0.0631,0.0644,0.0554,0.056,0.0564,0.0491,0.0468,0,0,0,0,0,-0.025,-0.0223,-0.0209,-0.0189,-0.0188,-0.0161,-0.0148,-0.0102,-0.0025,0.0029,0.0133,0.0281,0.0435,0.0502,0.0629,0.0685,0.0685,0.0757,0.0761,0.0764,0.0726,0.0738,0.0735,0.0767,0.0767,0.0767,0,0,-0.0252,-0.0225,-0.0211,-0.0188,-0.0177,-0.0186,-0.0129,-0.0118,-0.008,0.0039,0.015,0.0287,0.0464,0.0599,0.0674,0.0657,0.0769,0.0776,0.0776,0.0736,0.0747,0.0742,0.0738,0.0774,0.0773,0.0772,0,0,-0.028,-0.0222,-0.0229,-0.0223,-0.0209,-0.019,-0.0186,-0.0163,-0.0084,-0.0006,0.0151,0.0297,0.0471,0.0609,0.0707,0.079,0.0805,0.0874,0.0803,0.0816,0.081,0.0804,0.0821,0.0817,0.0857,0.0857,0.0856,0,-0.029,-0.0277,-0.0236,-0.0254,-0.0239,-0.0193,-0.0214,-0.0158,-0.0079,-0.0015,0.0052,0.034,0.0476,0.0655,0.0725,0.0789,0.0796,0.0751,0.0807,0.0802,0.0798,0.0816,0.0813,0.0853,0.0854,0.0854,0.0854,0,-0.0341,-0.0318,-0.0326,-0.0312,-0.03,-0.0304,-0.0245,-0.0199,-0.0108,-0.0037,0.0153,0.0319,0.0488,0.0585,0.0682,0.0763,0.0781,0.0811,0.0755,0.0786,0.0808,0.0806,0.0848,0.085,0.0851,0.0851,0,0,-0.0395,-0.0368,-0.0366,-0.0359,-0.0323,-0.0326,-0.0263,-0.019,-0.0151,-0.0008,0.0066,0.0342,0.041,0.0524,0.0658,0.0673,0.0673,0.0714,0.0716,0.0662,0.0693,0.0755,0.0759,0.0693,0.0692,0.0691,0.0724,0,-0.0445,-0.0474,-0.0441,-0.0446,-0.0449,-0.0382,-0.0339,-0.0257,-0.0155,-0.0074,0.0129,0.0269,0.0402,0.0473,0.0518,0.0658,0.0662,0.0661,0.0731,0.0733,0.0726,0.0757,0.0663,0.0687,0.0722,0.0722,0.0722,0,-0.05,-0.0499,-0.0517,-0.049,-0.0491,-0.0477,-0.0406,-0.0374,-0.0236,-0.0156,-0.0012,0.0131,0.0282,0.0337,0.0512,0.0504,0.0575,0.0645,0.0648,0.0722,0.0791,0.0669,0.0683,0.0719,0.0719,0.0719,0.0719,0,-0.0532,-0.0544,-0.054,-0.0532,-0.0508,-0.0479,-0.0464,-0.0374,-0.0336,-0.0219,-0.0172,0.0013,0.0132,0.0229,0.0452,0.0458,0.0584,0.0613,0.0727,0.0733,0.0673,0.0676,0.0647,0.0647,0.0647,0.0647,0.0647,0,-0.0566,-0.0562,-0.0546,-0.0539,-0.0542,-0.0522,-0.0507,-0.0472,-0.0419,-0.0354,-0.0215,-0.0125,0.01,0.0246,0.0382,0.0579,0.0543,0.07,0.0739,0.0651,0.0651,0.0696,0.0701,0.0648,0.0648,0.0648,0.0648,0,-0.058,-0.0566,-0.0571,-0.0557,-0.0544,-0.055,-0.0539,-0.0536,-0.0494,-0.0422,-0.0381,-0.0208,-0.0008,0.0203,0.039,0.0525,0.0668,0.0728,0.0626,0.0653,0.0811,0.0812,0.0827,0.083,0.0832,0.0833,0.0835,0,-0.0586,-0.0587,-0.0588,-0.0585,-0.0561,-0.0562,-0.0557,-0.0548,-0.0536,-0.0439,-0.0395,-0.021,-0.0045,0.0248,0.051,0.0728,0.0723,0.0734,0.0733,0.079,0.0826,0.0824,0.0823,0.0624,0.0623,0.0623,0.0623,0,-0.0609,-0.0602,-0.0617,-0.061,-0.0593,-0.0608,-0.0592,-0.0608,-0.0569,-0.0516,-0.0414,-0.0308,0.0036,0.0273,0.0572,0.0674,0.0696,0.0736,0.0797,0.0615,0.0607,0.064,0.0643,0.0619,0.062,0.062,0.062,0.062,-0.0632,-0.0654,-0.0662,-0.0652,-0.0639,-0.0647,-0.0659,-0.0633,-0.0633,-0.052,-0.0436,-0.021,-0.0003,0.0466,0.0596,0.0756,0.079,0.0754,0.0751,0.0749,0.0741,0.074,0.0775,0.0776,0.0777,0.0778,0.0778,0,-0.0692,-0.0687,-0.0696,-0.0706,-0.0716,-0.0662,-0.067,-0.0674,-0.0644,-0.0458,-0.0343,-0.0103,0.013,0.038,0.0655,0.0766,0.0715,0.0712,0.0605,0.0607,0.0609,0.0591,0.0586,0.0586,0.0587,0.0587,0,0,-0.0723,-0.0757,-0.0759,-0.0775,-0.0745,-0.0722,-0.0717,-0.0696,-0.0581,-0.0431,-0.02,0.0017,0.0261,0.0397,0.0463,0.0559,0.055,0.0534,0.0667,0.0527,0.0529,0.0603,0.0575,0,0,0,0,0]}],[{"header":{"parameterUnit":"m.s-1","parameterCategory":2,"la1":30.2991,"la2":30.254,"lo1":-89.0895,"lo2":-89.0444,"dy":0.0017,"dx":0.0017,"nx":28,"ny":28,"refTime":"2024-08-14T03:00:00:Z","depth":"4","parameterNumber":2,"parameterNumberName":"U-component_of_CURRENTS"},"data":[0,0,0,0,0,0,0,0,0,0,0,0,0,0,0,0,0,0,0,0,0,0,0,0,0,0,0,0,0,0,0,0,0,0,0,0,0,0,0,0,0,0,0,0,0,0,0,0,0,0,0,0,0,0,0,0,0,0,-0.1128,-0.1129,0,-0.1239,-0.1241,-0.1242,-0.1277,-0.1276,-0.1276,-0.1275,-0.1353,-0.1356,-0.1358,0,0,0,0,0,0,0,0,0,0,0,0,0,-0.1057,-0.1057,-0.1128,-0.1129,-0.1131,-0.1239,-0.1241,-0.1242,-0.1277,-0.1276,-0.1276,-0.1275,-0.1352,-0.1355,-0.1358,0,0,0,0,0,0,0,0,0,0,0,0,0,-0.112,-0.1058,-0.1128,-0.1161,-0.1165,-0.1239,-0.1241,-0.1243,-0.1277,-0.1276,-0.1276,-0.1275,-0.1351,-0.1355,-0.1359,-0.1399,0,0,-0.1371,-0.1372,0,0,0,0,0,0,0,0,-0.1116,-0.1122,-0.1155,-0.1159,-0.1164,-0.1243,-0.1244,-0.1293,-0.1277,-0.1235,-0.1275,-0.1274,-0.1314,-0.1321,-0.1344,-0.1402,-0.1406,-0.1371,-0.1373,-0.1375,-0.1376,0,0,0,0,0,0,0,-0.1112,-0.1118,-0.1172,-0.1156,-0.1162,-0.1209,-0.1216,-0.1255,-0.1277,-0.1238,-0.1241,-0.1254,-0.1316,-0.134,-0.1346,-0.1407,-0.1371,-0.1374,-0.1377,-0.1378,-0.1535,-0.1537,0,0,0,0,0,0,-0.1093,-0.1114,-0.1169,-0.1176,-0.1137,-0.121,-0.1218,-0.1219,-0.1277,-0.1286,-0.1254,-0.1255,-0.1334,-0.1342,-0.1349,-0.1425,-0.1375,-0.1379,-0.1381,-0.1534,-0.1536,-0.1538,0,0,0,0,0,0,-0.1091,-0.1096,-0.1164,-0.1148,-0.116,-0.1211,-0.1212,-0.1221,-0.1262,-0.129,-0.1297,-0.1287,-0.1334,-0.1343,-0.1391,-0.1427,-0.138,-0.1384,-0.1531,-0.1534,-0.1537,-0.156,0,0,0,0,0,0,-0.1088,-0.1094,-0.1109,-0.1146,-0.116,-0.1205,-0.1214,-0.1224,-0.127,-0.1272,-0.1321,-0.1326,-0.1334,-0.1385,-0.1395,-0.1431,-0.1387,-0.1529,-0.1533,-0.1536,-0.1557,-0.1563,-0.1569,0,0,0,0,0,-0.1085,-0.109,-0.1108,-0.1117,-0.1171,-0.1205,-0.1217,-0.1252,-0.1272,-0.1287,-0.1324,-0.1325,-0.1415,-0.139,-0.1401,-0.1439,-0.1527,-0.1532,-0.1536,-0.1554,-0.1562,-0.1568,0,0,0,0,0,0,-0.1075,-0.1096,-0.1116,-0.1131,-0.1169,-0.1211,-0.1243,-0.1267,-0.1313,-0.1324,-0.1347,-0.1356,-0.1407,-0.1426,-0.1399,-0.1496,-0.1473,-0.148,-0.1484,-0.1491,-0.1497,-0.1457,-0.139,0,0,0,0,0,-0.1079,-0.1074,-0.112,-0.113,-0.1161,-0.1212,-0.1241,-0.1261,-0.1298,-0.132,-0.1354,-0.1397,-0.1434,-0.1463,-0.1491,-0.1552,-0.1537,-0.1586,-0.1592,-0.1597,-0.1573,-0.1597,-0.1602,-0.1552,-0.1552,-0.1551,0,0,-0.1084,-0.1087,-0.1094,-0.1127,-0.117,-0.1208,-0.1227,-0.1271,-0.1299,-0.1321,-0.1383,-0.1414,-0.1451,-0.1507,-0.1534,-0.1529,-0.1603,-0.1602,-0.1605,-0.1579,-0.1602,-0.1606,-0.161,-0.1554,-0.1554,-0.1553,0,0,-0.1079,-0.1098,-0.1109,-0.1137,-0.119,-0.1216,-0.1232,-0.1294,-0.1326,-0.1385,-0.1405,-0.1443,-0.1527,-0.154,-0.1563,-0.1621,-0.1624,-0.1663,-0.1673,-0.1698,-0.1701,-0.1703,-0.1682,-0.1682,-0.1678,-0.1678,-0.1678,0,-0.109,-0.1098,-0.1122,-0.1145,-0.1173,-0.1221,-0.1257,-0.1297,-0.1359,-0.1392,-0.1404,-0.1512,-0.153,-0.1587,-0.1602,-0.1629,-0.1642,-0.1641,-0.1702,-0.1704,-0.1707,-0.1684,-0.1684,-0.168,-0.1679,-0.1679,-0.1679,0,-0.1103,-0.1119,-0.1133,-0.1166,-0.12,-0.123,-0.1288,-0.1332,-0.1382,-0.1423,-0.15,-0.1532,-0.1591,-0.1617,-0.1626,-0.1673,-0.1674,-0.1695,-0.1674,-0.1712,-0.1686,-0.1686,-0.1682,-0.1681,-0.1681,-0.168,0,0,-0.109,-0.1134,-0.1141,-0.1159,-0.1212,-0.1236,-0.1293,-0.1357,-0.1406,-0.1471,-0.1531,-0.1584,-0.1615,-0.1639,-0.167,-0.1688,-0.1699,-0.1708,-0.1708,-0.1667,-0.174,-0.1619,-0.1607,-0.1757,-0.1758,-0.1758,-0.1711,0,-0.11,-0.1125,-0.1154,-0.119,-0.1214,-0.1269,-0.1315,-0.1375,-0.144,-0.1508,-0.1556,-0.1619,-0.1626,-0.1665,-0.1686,-0.1704,-0.1704,-0.1708,-0.1724,-0.1722,-0.1596,-0.1604,-0.176,-0.171,-0.171,-0.171,-0.171,0,-0.1103,-0.1112,-0.115,-0.119,-0.1217,-0.1248,-0.1329,-0.1381,-0.1478,-0.1534,-0.1605,-0.1652,-0.1688,-0.169,-0.1717,-0.1737,-0.1726,-0.1726,-0.1726,-0.1596,-0.1601,-0.167,-0.1709,-0.1709,-0.1709,-0.1709,-0.1709,0,-0.105,-0.1103,-0.1124,-0.114,-0.1208,-0.1244,-0.1292,-0.1389,-0.1441,-0.1548,-0.159,-0.1668,-0.1691,-0.1719,-0.1721,-0.1736,-0.1736,-0.1756,-0.1624,-0.1615,-0.1726,-0.1724,-0.1744,-0.1744,-0.1744,-0.1745,-0.1745,0,-0.1012,-0.1032,-0.1103,-0.1108,-0.115,-0.1217,-0.1281,-0.135,-0.1446,-0.1487,-0.1596,-0.1613,-0.1704,-0.1725,-0.173,-0.1665,-0.1743,-0.1596,-0.1593,-0.1738,-0.1738,-0.1725,-0.1723,-0.1743,-0.1743,-0.1744,-0.1744,0,-0.0946,-0.099,-0.1016,-0.1092,-0.1118,-0.1153,-0.1249,-0.1289,-0.1397,-0.1448,-0.1476,-0.1572,-0.1579,-0.1646,-0.1667,-0.1637,-0.1614,-0.1568,-0.1688,-0.1698,-0.1467,-0.1468,-0.14,-0.1395,-0.1391,-0.1388,-0.1385,0,-0.0915,-0.0919,-0.0992,-0.1002,-0.1037,-0.1096,-0.1127,-0.1246,-0.1279,-0.1387,-0.1384,-0.1436,-0.1479,-0.1405,-0.1495,-0.1494,-0.1482,-0.1467,-0.1474,-0.1427,-0.1432,-0.1439,-0.1445,-0.1378,-0.1377,-0.1376,-0.1375,0,-0.0854,-0.0889,-0.0911,-0.0926,-0.0953,-0.0984,-0.1034,-0.105,-0.1166,-0.1266,-0.124,-0.1256,-0.1252,-0.1284,-0.1303,-0.1307,-0.1487,-0.1425,-0.1433,-0.1439,-0.1401,-0.1411,-0.1422,-0.1362,-0.1364,-0.1365,-0.1366,0,-0.0819,-0.0816,-0.0837,-0.0846,-0.086,-0.0846,-0.0903,-0.0913,-0.0962,-0.1086,-0.1053,-0.1119,-0.1191,-0.1181,-0.1198,-0.1202,-0.118,-0.116,-0.1182,-0.1198,-0.1164,-0.1088,-0.0925,0,0,0,0,0,-0.0773,-0.0749,-0.0747,-0.0733,-0.0734,-0.0742,-0.0818,-0.0881,-0.0985,-0.0918,-0.0988,-0.0974,-0.0984,-0.1027,-0.0989,-0.1131,-0.1208,-0.1086,-0.12,-0.1285,-0.1301,-0.1286,0,0,0,0,0,0,-0.0734,-0.0731,-0.0717,-0.0624,-0.0583,-0.0578,-0.0622,-0.0705,-0.0686,-0.0795,-0.0798,-0.0882,-0.0909,-0.0957,-0.0945,-0.0965,-0.1014,-0.1139,-0.1136,-0.1276,-0.1291,-0.1303,-0.1294,0,0,0,0,0]},{"header":{"parameterUnit":"m.s-1","parameterCategory":2,"la1":30.2991,"la2":30.254,"lo1":-89.0895,"lo2":-89.0444,"dy":0.0017,"dx":0.0017,"nx":28,"ny":28,"refTime":"2024-08-14T03:00:00:Z","depth":"4","parameterNumber":3,"parameterNumberName":"V-component_of_CURRENTS"},"data":[0,0,0,0,0,0,0,0,0,0,0,0,0,0,0,0,0,0,0,0,0,0,0,0,0,0,0,0,0,0,0,0,0,0,0,0,0,0,0,0,0,0,0,0,0,0,0,0,0,0,0,0,0,0,0,0,0,0,-0.031,-0.031,0,-0.0322,-0.0322,-0.0322,-0.0331,-0.0331,-0.0331,-0.0331,-0.0271,-0.0269,-0.0267,0,0,0,0,0,0,0,0,0,0,0,0,0,-0.0304,-0.0305,-0.031,-0.031,-0.031,-0.0322,-0.0322,-0.0322,-0.0331,-0.0331,-0.0331,-0.0331,-0.0271,-0.0269,-0.0267,0,0,0,0,0,0,0,0,0,0,0,0,0,-0.0311,-0.0305,-0.031,-0.0315,-0.0315,-0.0322,-0.0322,-0.0322,-0.0331,-0.0331,-0.0331,-0.0331,-0.0272,-0.0269,-0.0267,-0.0253,0,0,-0.026,-0.0259,0,0,0,0,0,0,0,0,-0.0311,-0.0312,-0.0314,-0.0314,-0.0315,-0.0324,-0.0298,-0.0295,-0.0331,-0.0326,-0.0331,-0.0331,-0.0281,-0.0278,-0.0283,-0.025,-0.0247,-0.026,-0.0258,-0.0257,-0.0256,0,0,0,0,0,0,0,-0.031,-0.0311,-0.0315,-0.0314,-0.0315,-0.032,-0.0321,-0.0298,-0.0303,-0.0326,-0.0326,-0.0327,-0.0281,-0.0285,-0.0281,-0.0246,-0.026,-0.0257,-0.0256,-0.0255,-0.0215,-0.0215,0,0,0,0,0,0,-0.0307,-0.0311,-0.0315,-0.0315,-0.0312,-0.032,-0.0321,-0.0322,-0.0304,-0.0302,-0.0327,-0.0327,-0.0289,-0.0284,-0.0279,-0.0279,-0.0257,-0.0255,-0.0253,-0.0215,-0.0215,-0.0215,0,0,0,0,0,0,-0.0307,-0.0307,-0.0314,-0.0313,-0.0314,-0.032,-0.0321,-0.0322,-0.0331,-0.0306,-0.0302,-0.0335,-0.0289,-0.0282,-0.0276,-0.0275,-0.0254,-0.0252,-0.0214,-0.0215,-0.0215,-0.0266,0,0,0,0,0,0,-0.0306,-0.0307,-0.0316,-0.0312,-0.0314,-0.0334,-0.0321,-0.0322,-0.033,-0.0331,-0.0311,-0.0305,-0.0288,-0.0279,-0.0273,-0.0272,-0.025,-0.0214,-0.0214,-0.0215,-0.0264,-0.0268,-0.0272,0,0,0,0,0,-0.0306,-0.0319,-0.0316,-0.0317,-0.0323,-0.0335,-0.0337,-0.0341,-0.0331,-0.0346,-0.0332,-0.0306,-0.0279,-0.0278,-0.0271,-0.0268,-0.0213,-0.0214,-0.0215,-0.0262,-0.0268,-0.0272,0,0,0,0,0,0,-0.0326,-0.032,-0.0318,-0.033,-0.0338,-0.0336,-0.0347,-0.0344,-0.0346,-0.0343,-0.0315,-0.0309,-0.0305,-0.028,-0.028,-0.0259,-0.0239,-0.0239,-0.0278,-0.0282,-0.0286,-0.028,-0.0248,0,0,0,0,0,-0.0332,-0.0337,-0.0337,-0.0347,-0.0349,-0.0347,-0.0353,-0.0357,-0.0352,-0.0354,-0.0339,-0.0317,-0.0301,-0.0288,-0.0276,-0.0261,-0.022,-0.0253,-0.0257,-0.0261,-0.0251,-0.0206,-0.0205,-0.0218,-0.0218,-0.0218,0,0,-0.0343,-0.0339,-0.0344,-0.0351,-0.0352,-0.0367,-0.0352,-0.0365,-0.0376,-0.0344,-0.0353,-0.0336,-0.0304,-0.0299,-0.0292,-0.0276,-0.0236,-0.0262,-0.0265,-0.0253,-0.0207,-0.0206,-0.0204,-0.0219,-0.0218,-0.0218,0,0,-0.0362,-0.0361,-0.0372,-0.0381,-0.0388,-0.0388,-0.0392,-0.0396,-0.0398,-0.0403,-0.0383,-0.0372,-0.0345,-0.0328,-0.0312,-0.0327,-0.0266,-0.0314,-0.0319,-0.0277,-0.0275,-0.0273,-0.0218,-0.0211,-0.0307,-0.0307,-0.0307,0,-0.0377,-0.039,-0.0381,-0.0396,-0.0407,-0.0397,-0.0419,-0.0419,-0.0423,-0.0414,-0.0414,-0.0377,-0.036,-0.0336,-0.0343,-0.0336,-0.029,-0.0305,-0.0281,-0.0279,-0.0276,-0.022,-0.0211,-0.031,-0.0309,-0.0309,-0.0309,0,-0.0404,-0.0421,-0.0428,-0.0441,-0.0453,-0.0472,-0.0469,-0.0476,-0.0468,-0.0456,-0.0442,-0.0424,-0.0394,-0.039,-0.0368,-0.0336,-0.0303,-0.03,-0.0269,-0.0277,-0.0218,-0.0208,-0.0313,-0.0312,-0.0312,-0.0311,0,0,-0.0419,-0.0444,-0.0447,-0.0468,-0.0481,-0.0496,-0.0503,-0.0504,-0.0497,-0.0492,-0.0476,-0.0456,-0.0429,-0.0408,-0.0382,-0.0343,-0.0292,-0.0306,-0.0302,-0.0251,-0.0174,-0.0169,-0.0157,-0.0276,-0.0274,-0.0273,-0.0141,0,-0.0446,-0.0486,-0.0488,-0.0533,-0.0556,-0.0552,-0.0558,-0.0553,-0.0535,-0.0517,-0.0479,-0.0459,-0.0439,-0.0423,-0.0381,-0.0325,-0.0266,-0.0326,-0.0174,-0.0169,-0.0163,-0.0146,-0.0269,-0.0133,-0.013,-0.0129,-0.0127,0,-0.0472,-0.0496,-0.0545,-0.0579,-0.0587,-0.0612,-0.0615,-0.0619,-0.0575,-0.0556,-0.0516,-0.0476,-0.0427,-0.0409,-0.0296,-0.0329,-0.0243,-0.0193,-0.0187,-0.0154,-0.0145,-0.0122,-0.0108,-0.011,-0.0111,-0.0113,-0.0114,0,-0.0491,-0.0537,-0.058,-0.0596,-0.0627,-0.0645,-0.0655,-0.063,-0.0626,-0.0575,-0.0558,-0.0486,-0.0459,-0.0357,-0.0254,-0.0262,-0.0116,-0.0119,-0.0025,-0.0023,-0.0045,-0.0048,-0.0008,-0.0008,-0.0008,-0.0009,-0.0009,0,-0.0519,-0.0556,-0.0598,-0.0625,-0.0672,-0.0676,-0.0701,-0.0691,-0.0663,-0.065,-0.0579,-0.0555,-0.0441,-0.0348,-0.0242,-0.0106,-0.0102,-0.0011,0.0013,-0.007,-0.0077,-0.0037,-0.0042,-0.0004,-0.0005,-0.0006,-0.0006,0,-0.0537,-0.0564,-0.0621,-0.0667,-0.0688,-0.072,-0.0753,-0.0755,-0.0724,-0.0706,-0.069,-0.0599,-0.0476,-0.0343,-0.0178,-0.0103,0.0029,0.0089,0.0005,0.002,0.0099,0.0089,0.0207,0.0208,0.0209,0.021,0.0211,0,-0.0549,-0.058,-0.0655,-0.0694,-0.0724,-0.0771,-0.0795,-0.079,-0.0785,-0.0736,-0.0721,-0.0604,-0.0524,-0.0283,-0.0154,0.0067,0.0096,0.0166,0.0126,0.011,0.0122,0.011,0.01,0.0213,0.0213,0.0213,0.0214,0,-0.057,-0.06,-0.0643,-0.0718,-0.0771,-0.0821,-0.0853,-0.0853,-0.0828,-0.0812,-0.0723,-0.0595,-0.0446,-0.0274,-0.0093,0.0055,0.0108,0.0179,0.0177,0.014,0.0118,0.0127,0.0115,0.0217,0.0217,0.0217,0.0216,0,-0.0581,-0.0615,-0.0668,-0.0732,-0.0799,-0.0839,-0.0863,-0.0847,-0.0837,-0.0771,-0.0749,-0.0588,-0.0503,-0.0278,-0.0125,0.0031,0.0065,0.0096,0.01,0.0097,0.0013,-0.0034,0.0053,0,0,0,0,0,-0.0581,-0.0614,-0.0675,-0.0741,-0.0804,-0.0838,-0.0879,-0.0886,-0.087,-0.0803,-0.0767,-0.062,-0.0386,-0.0296,-0.0132,-0.011,0.0083,0.0083,0.0119,0.0239,0.0235,0.0154,0,0,0,0,0,0,-0.0584,-0.0637,-0.0665,-0.0726,-0.0767,-0.0829,-0.0855,-0.0854,-0.0805,-0.0774,-0.0643,-0.0586,-0.0353,-0.0464,-0.0127,-0.0084,-0.0044,0.0192,0.0195,0.0242,0.0238,0.0234,0.0149,0,0,0,0,0]}]]